Regional Weather Roundup
Issued by NWS

Home | Current Version | Previous Version | Text Only | Print | Product List | Glossary On
Versions: 1 2 3 4 5 6 7 8 9 10 11 12 13 14 15 16 17 18 19 20 21 22 23 24 25 26 27 28 29 30 31 32 33 34 35 36 37 38 39 40 41 42 43 44 45 46 47 48 49 50
000
ASUS42 KTBW 300715
RWRFL
FLORIDA REGIONAL WEATHER ROUNDUP
NATIONAL WEATHER SERVICE TAMPA BAY RUSKIN FL
300 AM EDT MON MAR 30 2015

NOTE: "FAIR" INDICATES FEW OR NO CLOUDS BELOW 12,000 FEET WITH NO
SIGNIFICANT WEATHER AND/OR OBSTRUCTIONS TO VISIBILITY.


FLZ001>010-012>015-112-114-115-300800-
PANHANDLE FLORIDA

CITY           SKY/WX    TMP DP  RH WIND       PRES   REMARKS
PENSACOLA      CLOUDY    66  60  81 S9        30.21F
PENSACOLA NAS  MOCLDY    66  61  84 S10       30.20F
MILTON NAS     CLOUDY    59  57  93 SE5       30.22
CRESTVIEW      CLEAR     48  46  93 CALM      30.25S
DUKE FIELD       N/A    N/A N/A N/A S8          N/A
MARY ESTHER    MOCLDY    65  56  72 S14       30.21
TRI COUNTY     FAIR      49  47  93 CALM      30.26F
PANAMA CITY    FAIR      56  51  84 SE5       30.24F
TYNDALL AFB    CLEAR     59  50  73 S6        30.25F
APALACHICOLA   CLEAR     50  44  80 CALM      30.27F

STATION/POSITION SKY/WX   TEMP    WIND        PRES    WAVE   SWELL
                          AIR SEA DIR/SP/G            HT/PER HT/PER
                          (F)     (DEG/KT/KT) (MB)    (FT/S) (FT/S)
30.1N   87.6W              68 67  180/ 14/ 16 1022.0F   3/ 5
29.2N   88.2W              70 70  180/ 17/ 23 1023.7F   4/ 4
28.8N   86.0W              66 74  170/ 10/ 14 1025.0F   2/ 5   2/ 5
PANAMA CITY BEAC           63 62  170/ 12/ 13 1024.4F
CAPE SAN BLAS    NOT AVBL
TOWER C                    62     180/  8/  9 1024.8F
28.5N   84.5W              65 68  130/  8/ 10 1025.4F   1

$$
FLZ011-016>038-118-127-128-134-139-239-300800-
NORTH FLORIDA

CITY           SKY/WX    TMP DP  RH WIND       PRES   REMARKS
MARIANNA       CLEAR     53  46  77 S7        30.25F
TALLAHASSEE    CLEAR     44  40  85 CALM      30.27F
PERRY          CLEAR     46  43  90 E6        30.28F WCI  43
CROSS CITY       N/A     43  39  86 CALM      30.29F
LAKE CITY      FAIR      41  41 100 CALM      30.29F
GAINESVILLE    CLEAR     42  39  89 CALM      30.29F
MAYPORT NAS    CLEAR     47  42  83 S3        30.28F
JACKSONVILLE   CLEAR     42  39  89 CALM      30.27F
JAX NAS        CLEAR     58  43  57 SE12      30.28F
JAX CRAIG      CLEAR     44  40  85 CALM      30.28F
JAX CECIL      CLEAR     37  36  93 CALM      30.28F
FERNANDINA BEA FAIR      52  43  71 CALM      30.26F
ST AUGUSTINE   CLEAR     45  42  89 CALM      30.29F

STATION/POSITION SKY/WX   TEMP    WIND        PRES    WAVE   SWELL
                          AIR SEA DIR/SP/G            HT/PER HT/PER
                          (F)     (DEG/KT/KT) (MB)    (FT/S) (FT/S)
SHELL POINT                51      40/  2/  2   N/A
KEATON BEACH               50     100/  6/  7 1025.5F
CEDAR KEY                  56     120/ 10/ 11 1026.1F
FERNANDINA                 51 63  160/  3/  4 1025.1F
30.7N   81.3W                 60                N/A     3/ 7
MAYPORT                    52 64  200/  3/  5 1025.8F
31.4N   80.9W              57 60  190/ 12/ 14 1025.1F   3/ 8   2/ 8
ST AUGUSTINE               57 60   80/  4/  4 1026.5F

$$
FLZ040-043>046-052-053-057-058-063-144-300800-
INTERIOR CENTRAL FLORIDA

CITY           SKY/WX    TMP DP  RH WIND       PRES   REMARKS
OCALA          CLEAR     41  36  81 CALM      30.29F
THE VILLAGES     N/A     45  41  87 CALM      30.20F
LEESBURG       CLEAR     49  44  83 CALM      30.30F
SANFORD        CLEAR     52  45  77 N6        30.29F
ORLANDO EXEC   CLEAR     54  45  71 N3        30.29F
ORLANDO INTL   CLEAR     52  44  74 CALM      30.29F
WINTER HAVEN   CLEAR     50  40  68 NE3       30.30F
BARTOW         FAIR      46  39  76 CALM      30.30S
OKEECHOBEE     CLEAR     43  41  93 CALM      30.27F

$$
FLZ041-047-054-059-064-141-147-300800-
EAST CENTRAL FLORIDA

CITY           SKY/WX    TMP DP  RH WIND       PRES   REMARKS
DAYTONA BEACH  CLEAR     50  45  83 NW3       30.29F
DELAND           N/A    N/A N/A N/A CALM      30.30F
CAPE CANAVERAL FAIR      55  50  82 NW5       30.26F
PATRICK AFB    FAIR      58  50  75 N7        30.27
MELBOURNE      CLEAR     52  45  77 NW5       30.27F
VERO BEACH     CLEAR     49  45  86 NW3       30.27F
FT PIERCE      CLEAR     48  44  86 NW3       30.26F
STUART         PTCLDY    55  50  82 NW7       30.26F

STATION/POSITION SKY/WX   TEMP    WIND        PRES    WAVE   SWELL
                          AIR SEA DIR/SP/G            HT/PER HT/PER
                          (F)     (DEG/KT/KT) (MB)    (FT/S) (FT/S)
28.5N   80.2W              62 69  360/  4/  6 1025.2F
28.9N   78.5W              63 75   30/  6/  8 1025.7F
TRIDENT PIER               58 71  320/  5/  7 1025.8F
28.4N   80.5W                 69                N/A     2/ 9
27.5N   80.2W                 74                N/A     3/ 9   2/11

$$
FLZ050-056-061-142-242-148-248-149-249-151-251-155-255-
160-260-300800-
WEST CENTRAL FLORIDA

CITY           SKY/WX    TMP DP  RH WIND       PRES   REMARKS
CRYSTAL RIVER  FAIR      41  36  81 CALM      30.29F
INVERNESS      FAIR     N/A N/A N/A CALM      30.30F
BROOKSVILLE    CLEAR     44  37  76 E3        30.30F
ZEPHYRHILLS    FAIR      41  39  93 CALM      30.31S
CLEARWATER     CLEAR     53  42  66 E6        30.29F
TAMPA INTL     CLEAR     54  39  57 NE5       30.30F
TAMPA EXEC     CLEAR     46  43  87 CALM      30.30F
PLANT CITY     CLEAR     48  43  81 CALM      30.31S
MACDILL AFB    CLEAR     51  43  74 E7        30.29F
PETER O KNIGHT CLEAR     54  43  66 NE3       30.30S
ST PETERSBURG  CLEAR     58  40  51 E9        30.28F
SARASOTA       CLEAR     50  42  74 E7        30.27F
VENICE         FAIR      52  45  76 E7        30.28F

STATION/POSITION SKY/WX   TEMP    WIND        PRES    WAVE   SWELL
                          AIR SEA DIR/SP/G            HT/PER HT/PER
                          (F)     (DEG/KT/KT) (MB)    (FT/S) (FT/S)
CEDAR KEY                  56     120/ 10/ 11 1026.1F
28.5N   84.5W              65 68  130/  8/ 10 1025.4F   1
27.3N   84.2W                 71                N/A     2/ 5
CLEARWATER BEACH NOT AVBL
MIDDLE TAMPA BAY           57     130/  9/ 11 1025.9F
VENICE                     54 71   60/  7/  8 1024.8F

$$
FLZ066-069-070-075>078-162-262-165-265-300800-
SOUTHWEST FLORIDA AND KEYS

CITY           SKY/WX    TMP DP  RH WIND       PRES   REMARKS
PUNTA GORDA    CLEAR     47  43  86 NE3       30.29F
FT MYERS       CLEAR     53  43  68 E5        30.26F
SOUTHWEST INTL CLEAR     53  43  68 NE6       30.27F
NAPLES         CLEAR     53  47  79 E6        30.25F
MARCO ISLAND     N/A     54  43  66 NE3       30.25F
IMMOKALEE      SUNNY    N/A N/A N/A CALM      30.26F
MARATHON       CLEAR     67  58  72 NE13      30.20F
KEY WEST NAS   PTCLDY    67  58  72 NE12      30.21F
KEY WEST INTL  CLEAR     68  59  73 NE8       30.21F

STATION/POSITION SKY/WX   TEMP    WIND        PRES    WAVE   SWELL
                          AIR SEA DIR/SP/G            HT/PER HT/PER
                          (F)     (DEG/KT/KT) (MB)    (FT/S) (FT/S)
VENICE                     54 71   60/  7/  8 1024.8F
NAPLES                     57 73   70/  5/  9 1024.3F
26.0N   85.6W              70 73   80/ 14/ 16 1024.0F   3/ 5
DRY TORTUGAS               72     110/ 16/ 19 1023.3F
NW FL BAY                  65      40/ 13/ 16 1024.0
SAND KEY                   70      60/ 17/ 19 1022.7F
SOMBRERO KEY               68      30/ 17/ 19 1022.9F
LONG KEY                   67 72   30/ 16/ 18 1023.7F
MOLASSES REEF              68 76  360/ 14/ 16 1022.5F

$$
FLZ067-068-071>074-168-172>174-300800-
SOUTHEAST FLORIDA

CITY           SKY/WX    TMP DP  RH WIND       PRES   REMARKS
W PALM BEACH   PTCLDY    57  51  80 NW5       30.23F
FT LAUDER-EXEC CLEAR     61  49  64 N7        30.23F
FT LAUDERDALE  PTCLDY    60  50  69 N8        30.23
POMPANO BEACH  CLEAR     59  49  69 NW7       30.23F
PEMBROKE PINES CLEAR     60  49  66 N6        30.24F
OPA LOCKA      MOCLDY    62  50  64 N9        30.24F
MIAMI          PTCLDY    63  50  62 N5        30.23F
WEST KENDALL   CLEAR     61  51  70 N7        30.23F
HOMESTEAD      CLEAR     60  50  69 N7        30.22F

STATION/POSITION SKY/WX   TEMP    WIND        PRES    WAVE   SWELL
                          AIR SEA DIR/SP/G            HT/PER HT/PER
                          (F)     (DEG/KT/KT) (MB)    (FT/S) (FT/S)
PORT EVERGLADES            62     320/  7/ 10 1023.3F
VIRGINIA KEY               64 75  350/  6/ 10 1023.5F
LAKE WORTH                 62 75  320/  8/ 12 1023.8F
SETTLEMENT POINT           66      70/  5/  8 1024.4F

$$



USA.gov is the U.S. government's official web portal to all federal, state and local government web resources and services.